#timestamp,LO_Frequency,Hit,StdDev 
1622162415.7,286047030.2,P
1622162435.5,286047033.2,P
1622162455.4,286047028.8,P
1622162475.2,286047031.4,Y
1622162495.0,286047002.7,P
1622162495.9,286047002.7,N
1622162515.8,286047002.8,N
1622162535.6,286047002.3,N
1622162555.4,286047003.1,N
1622162575.3,286047005.8,N
1622162595.1,286047007.6,N
1622162615.9,286047004.8,N
1622162635.7,286047007.3,N
1622162655.5,286047006.9,N
1622162675.4,286047005.1,N
1622162695.2,286047005.2,N
1622162715.0,286047004.5,N
1622162715.9,286047004.5,N
1622162735.8,286047006.0,N
1622162755.6,286047003.3,N
1622162775.5,286047005.7,N
1622162795.3,286047004.7,N
1622162815.1,286047007.6,N
1622162835.9,286047004.9,N
1622162855.7,286047004.6,N
1622162875.5,286047005.5,N
1622162895.4,286047003.0,N
1622162915.2,286047002.9,N
1622162935.1,286047005.8,N
1622162936.0,286047005.8,N
1622162955.8,286047004.6,N
1622162975.6,286047002.9,N
1622162995.5,286047001.3,N
1622163015.3,286047006.0,N
1622163035.2,286047004.1,N
1622163055.9,286047005.6,Y
1622163075.7,286047000.7,P
1622163095.6,286047000.5,N
1622163115.4,286047002.8,N
1622163135.3,286047000.0,N
1622163155.1,286047000.2,N
1622163156.0,286047000.2,N
1622163175.8,286047002.3,N
1622163195.7,286047000.3,N
1622163215.5,286047002.1,N
1622163235.4,286047001.9,N
1622163255.2,286047001.8,N
1622163275.0,286047003.6,N
1622163275.9,286047003.6,N
1622163295.8,286047003.6,N
1622163315.6,286047002.9,N
1622163335.4,286047004.6,Y
1622163355.3,286047001.6,P
1622163375.1,286047002.3,P
1622163395.9,286046999.7,N
1622163415.7,286047001.5,N
1622163435.5,286047002.3,N
1622163455.4,286047002.8,Y
1622163475.2,286047000.2,P
1622163495.1,286046999.9,N
1622163496.0,286046999.9,N
1622163515.8,286047002.6,Y
1622163535.6,286047001.9,P
1622163555.5,286047002.0,N
1622163575.3,286047003.1,P
1622163595.2,286047005.8,Y
